Location: Haliburton Scout Reserve
(45.0900°N, 78.3200°W)
Time: 14:31:38
(UTC-05:00)

IDEFIX/ARIANE 42P - Visible Passes

Search period start: 18 December 2014 00:00
Search period end: 28 December 2014 00:00
Orbit: 785 x 804 km, 98.3° (Epoch: 18 December)

Date Brightness Start Highest point End Pass type
(mag) Time Alt. Az. Time Alt. Az. Time Alt. Az.
18 Dec 4.8 19:14:22 13° N 19:14:22 13° N 19:14:51 10° N visible
19 Dec 4.6 18:45:48 13° N 18:45:48 13° N 18:46:20 10° N visible
20 Dec 4.6 18:17:13 11° NNE 18:17:13 11° NNE 18:17:29 10° NNE visible
20 Dec 5.1 19:58:02 11° NNW 19:58:02 11° NNW 19:58:11 10° NNW visible
21 Dec 4.8 19:29:27 13° N 19:29:27 13° N 19:30:01 10° N visible
22 Dec 4.6 19:00:51 14° N 19:00:51 14° N 19:01:37 10° N visible
23 Dec 5.5 07:04:41 10° ENE 07:07:15 14° E 07:09:48 10° ESE visible
23 Dec 4.5 18:32:15 13° NNE 18:32:15 13° NNE 18:32:59 10° N visible
23 Dec 5.2 20:13:03 10° NNW 20:13:03 10° NNW 20:13:08 10° NNW visible
24 Dec 4.6 18:03:38 11° NNE 18:03:38 11° NNE 18:03:54 10° NNE visible
24 Dec 4.9 19:44:27 14° NNW 19:44:27 14° NNW 19:45:06 10° NNW visible
25 Dec 4.6 19:15:49 16° N 19:15:49 16° N 19:16:50 10° N visible
26 Dec 4.4 18:47:11 16° N 18:47:11 16° N 18:48:20 10° N visible
27 Dec 6.0 06:53:31 10° E 06:53:57 10° E 06:54:23 10° E visible
27 Dec 4.4 18:18:33 14° NNE 18:18:33 14° NNE 18:19:32 10° NNE visible
27 Dec 4.9 19:59:21 14° NNW 19:59:21 14° NNW 20:00:07 10° NNW visible
